Location: Washington
(38.8950°N, 77.0370°W)
Time: 12:36:30
(UTC-05:00)

Daily predictions for brighter satellites

Satellite Brightness Start Highest point End
(mag) Time Altitude Azimuth Time Altitude Azimuth Time Altitude Azimuth
NOSS 3-1 (A) 4.3 17:06:04 10° NW 17:13:49 86° WSW 17:22:12 10° SSE
Cosmos 1455 Rocket 4.3 17:12:11 10° NNE 17:15:33 21° ENE 17:18:56 10° SE
Cosmos 1295 Rocket 4.5 17:14:00 10° N 17:20:05 61° E 17:26:04 10° SSE
Cosmos 1125 Rocket 4.0 17:16:27 10° SSW 17:21:42 64° WNW 17:27:00 10° NNE
Cosmos 2341 Rocket 4.0 17:17:57 10° N 17:24:11 87° E 17:30:24 10° S
Thor Agena Rocket 3.6 17:20:30 10° NNE 17:25:42 69° ESE 17:30:56 10° S
ATLAS 2AS CENTAUR R/B 3.4 17:18:08 10° NNW 17:25:49 44° NE 17:33:01 10° ESE
Cosmos 1269 Rocket 4.3 17:23:35 10° NNW 17:28:54 74° WSW 17:34:10 10° S
Okean 1 4.5 17:31:43 10° SE 17:35:00 24° E 17:38:17 10° NE
Hubble Space Telescope 3.5 17:33:58 10° SW 17:36:05 14° SSW 17:38:10 10° SSE
Cosmos 1536 3.3 17:32:24 10° NNW 17:36:26 65° W 17:40:28 10° S
Cosmos 2263 Rocket 4.2 17:34:11 10° WSW 17:38:34 23° NW 17:43:00 10° N
Cosmos 2251 Rocket 3.9 17:34:44 10° N 17:39:48 41° ENE 17:44:48 10° SE
ISS -2.6 17:43:30 10° WSW 17:46:42 48° NW 17:49:07 16° NE
MSX 3.8 17:46:24 10° SSE 17:52:07 71° ENE 17:57:51 10° N
SL-27 R/B 2.4 17:52:02 10° NNW 17:55:41 64° ENE 17:59:17 10° SSE
Cosmos 1812 2.7 17:51:59 10° S 17:55:48 62° E 17:59:37 10° NNE
Cosmos 1346 Rocket 3.8 17:52:44 10° SSE 17:56:01 26° E 17:57:08 22° ENE
CZ-4 R/B 3.0 17:56:07 10° S 18:00:04 40° W 18:04:01 10° NNW
Cosmos 864 Rocket 4.4 17:54:26 10° N 18:00:43 70° E 18:06:59 10° SSE
Tiangong 1 3.1 18:00:18 10° S 18:02:02 14° SE 18:02:26 14° SE
COSMO-SKYMED 1 2.6 17:58:13 10° NNE 18:02:31 57° E 18:06:46 10° S
Cosmos 1544 Rocket 3.6 17:59:21 10° N 18:03:49 86° W 18:08:17 10° S
Cosmos 1844 Rocket 3.1 17:58:59 10° SW 18:04:30 61° WNW 18:10:05 10° NNE
GEOS 3 Rocket 3.7 18:00:55 10° SE 18:05:52 53° NE 18:10:51 10° NNW
CZ-2C R/B 3.3 18:01:55 10° S 18:06:42 52° W 18:11:40 10° NNW
Cosmos 1238 Rocket 2.6 18:07:57 10° SSW 18:10:55 60° W 18:13:47 10° N
MONITOR-E 4.3 18:08:07 10° S 18:11:17 76° WSW 18:14:30 10° NNW
Meteor 1-12 Rocket 4.2 18:07:04 10° N 18:12:52 76° E 18:18:44 10° SSE
Cosmos 1844 3.9 18:09:12 10° SSW 18:14:44 68° WNW 18:20:17 10° NNE
Cosmos 2297 4.3 18:10:56 10° SSE 18:15:56 33° ESE 18:17:28 29° ENE
CZ-3A R/B 4.3 18:11:08 10° W 18:16:33 46° N 18:35:18 16° NE
Cosmos 1975 2.7 18:13:36 10° N 18:17:40 66° E 18:21:40 10° SSE
BREEZE-M DEB (TANK) 4.0 18:17:19 10° NW 18:18:35 14° NNW 18:18:35 14° NNW
Cosmos 1536 Rocket 3.7 18:17:33 10° S 18:21:59 78° W 18:26:29 10° N
Cosmos 2278 Rocket 2.2 18:26:47 10° SSW 18:32:25 81° WNW 18:36:35 19° NNE
Meteor 2-21 Rocket 4.4 18:31:15 10° N 18:37:25 64° E 18:43:30 10° SSE
Meteor 1-13 Rocket 4.1 18:36:47 10° S 18:42:22 71° E 18:46:05 23° NNE
Meteor 2-16 Rocket 4.4 18:37:09 10° N 18:43:08 57° E 18:49:06 10° SSE
Timation 1 Rocket 4.4 18:39:58 10° S 18:45:40 50° ESE 18:46:14 48° E
Cosmos 1484 Rocket 4.2 18:42:13 10° SSW 18:45:44 37° W 18:49:15 10° NNW
Okean 1-7 Rocket 3.5 18:42:23 10° S 18:46:43 68° ESE 18:46:43 68° ESE
OTV 4 2.8 18:47:35 10° WSW 18:49:39 21° SSW 18:49:39 21° SSW
Cosmos 921 Rocket 4.0 18:46:00 10° S 18:48:30 33° SSE 18:48:30 33° SSE
CZ-3B DEB 3.2 18:46:14 10° W 18:50:26 47° NNW 18:55:16 25° NE
Cosmos 1535 Rocket 4.4 18:48:31 10° N 18:54:48 62° E 19:00:57 10° SSE
Timation 2 Rocket 4.1 18:50:41 10° NNW 18:57:28 64° ENE 18:59:44 43° SE
Cosmos 2082 Rocket 2.7 18:53:34 10° NNW 18:57:45 44° NNE 18:57:45 44° NNE
Cosmos 1833 Rocket 3.7 18:59:38 10° NNW 19:02:46 31° N 19:02:46 31° N
SL-8 R/B 4.2 19:04:39 10° WSW 19:09:02 54° NW 19:09:02 54° NW
Cosmos 2239 Rocket 4.3 19:06:47 10° N 19:13:02 89° E 19:19:12 10° S
METEOR-M 4.4 19:10:18 10° S 19:15:35 66° WSW 19:20:55 10° NNW
ATLAS 2AS CENTAUR R/B 3.9 19:09:22 10° NW 19:16:52 46° WSW 19:23:50 10° S
Meteor 2-4 Rocket 4.3 19:14:27 10° S 19:18:00 42° S 19:18:00 42° S
Cosmos 1821 Rocket 3.9 19:15:16 10° N 19:21:23 83° W 19:27:28 10° S
ATLAS 3B CENTAUR R/B 3.9 19:49:37 10° WSW 20:00:10 35° SSW 20:00:10 35° SSW
FALCON 9 R/B 4.0 20:17:17 10° W 20:26:28 40° WSW 20:26:28 40° WSW
